COSMOS 2304

Satellite information

Favourite Embed

Satellite Type and Status

PAYLOADIN ORBIT

Key statistics

Satellite COSMOS 2304 at a glance.

Uptime

11269

Days in orbit

Revolutions

≈ 12.6

Per day

Orbit

LEO

Low Earth Orbit

Inclination

82.6

Latest

Satellite identification and parameters

Extended collection of information and parameters for COSMOS 2304.

Object identification

Identified? True

Debris? False

Object name: COSMOS 2304

International designator: 1994-086F

Object number (NORAD): 23446

Object ID (CCSDS): 23446

Country: COMMONWEALTH OF INDEPENDENT STATES (CIS)

Current information (Y/N): Y

RCS size: MEDIUM

Orbital parameters

Period: 114.087 minutes

Inclination: 82.5667 deg

SMA: 7792.026 km

Apoapsis: 1416.721 km

Periapsis: 1411.06 km

RAAN: 105.6161 deg

Eccentricy: 0.00036326

Argument of periapsis: 342.0167 deg

Mean anomaly: 89.9022 deg

Mean motion: 12.62197203 rev/day

Mean motion (dot): 0.00000051 rev/day2

B* drag term: 0.00022394146 1/REarth

Two-line elements (TLE)

Creation date: Nov. 1, 2025, 7:40 p.m.

Reference frame: TEME

Reference center: EARTH

Epoch: Nov. 1, 2025, 12:20 p.m. UTC

TLE line 0: 0 COSMOS 2304

TLE line 1: 1 23446U 94086F 25305.51455757 .00000051 00000-0 22394-3 0 9999

TLE line 2: 2 23446 82.5667 105.6161 0003633 342.0167 89.9022 12.62197203420967

Live tracking on map

Real-time ground track for satellite COSMOS 2304.

In-orbit conjunctions

There are no conjunctions computed for COSMOS 2304, at the moment. Check back to stay up to date, as we update our databases every day.

Go to all conjunctions

Associated space launch

Second generation store-dump military communications satellites

COSMOS 2304 was lifted into orbit during the mission ‘Tsiklon-3 | Strela-3 107 to 112’, on board a Tsiklon-3 space rocket.

The launch took place on Dec. 26, 1994, 10:26 p.m. from 32/2.

For more information about the launch, click the button.

Launch to space Tsiklon-3 | Strela-3 107 to 112
Tsiklon-3 | Strela-3 107 to 112

Agency: N/A

Status: Launch Successful

Launch date: Dec. 26, 1994, 10:26 p.m. UTC

Rocket: Tsiklon-3

Launch pad: 32/2

Location: Plesetsk Cosmodrome, Russian Federation

...

Latest news about this satellite

There are no fresh news available about this satellite. Check back as we update our databases every day.


Newsletter sign-up

Weekly statistics, charts and insights to help you stay on top of the space industry.